{"data":{"norad_id":54811,"epoch":"2026-09-20T10:25:55.937280Z","epoch_age_seconds":98962,"freshness":"FRESH","line1":"1 54811U 22175BF  26263.43467520  .00001123  00000+0  44369-4 0  9992","line2":"2 54811  53.1588 217.6776 0001304  97.0542 263.0609 15.34394577209760","mean_motion":15.34394577,"eccentricity":0.0001304,"inclination_deg":53.1588,"raan_deg":217.6776,"arg_perigee_deg":97.0542,"mean_anomaly_deg":263.0609,"bstar":4.4369e-5,"rev_number":20976,"period_min":93.848089766808,"perigee_km":461.82731088427,"apogee_km":463.61140622258,"semimajor_km":6840.8563585534,"source":"CELESTRAK","updated_at":"2026-09-21T09:00:33.131821Z"}}